TimeCDT,TemperatureF,Dew PointF,Humidity,Sea Level PressureIn,VisibilityMPH,Wind Direction,Wind SpeedMPH,Gust SpeedMPH,PrecipitationIn,Events,Conditions,WindDirDegrees,DateUTC
12:58 AM,25.5,23.4,92,30.33,10.0,West,4.6,-,N/A,,Clear,280,2013-10-25 05:58:00
1:58 AM,23.0,21.9,96,30.33,10.0,WNW,2.3,-,N/A,,Clear,290,2013-10-25 06:58:00
2:58 AM,24.6,23.0,94,30.33,10.0,Calm,Calm,-,N/A,,Overcast,0,2013-10-25 07:58:00
3:58 AM,26.1,24.8,95,30.34,10.0,Calm,Calm,-,N/A,,Mostly Cloudy,0,2013-10-25 08:58:00
4:58 AM,26.8,25.5,95,30.34,10.0,Calm,Calm,-,N/A,,Overcast,0,2013-10-25 09:58:00
5:58 AM,28.4,27.3,96,30.35,10.0,Calm,Calm,-,N/A,,Overcast,0,2013-10-25 10:58:00
6:58 AM,31.5,27.7,86,30.35,10.0,SW,5.8,-,N/A,,Overcast,230,2013-10-25 11:58:00
7:58 AM,32.0,26.6,80,30.34,10.0,SW,5.8,-,N/A,,Mostly Cloudy,230,2013-10-25 12:58:00
8:58 AM,33.8,28.4,81,30.34,10.0,SW,3.5,-,N/A,,Mostly Cloudy,230,2013-10-25 13:58:00
9:58 AM,39.2,28.4,65,30.33,10.0,WSW,5.8,-,N/A,,Mostly Cloudy,250,2013-10-25 14:58:00
10:58 AM,42.8,28.4,57,30.31,10.0,SW,10.4,-,N/A,,Mostly Cloudy,220,2013-10-25 15:58:00
11:58 AM,44.6,28.4,53,30.27,10.0,WSW,5.8,-,N/A,,Mostly Cloudy,240,2013-10-25 16:58:00
12:58 PM,48.2,26.6,43,30.23,10.0,WSW,10.4,-,N/A,,Scattered Clouds,240,2013-10-25 17:58:00
1:58 PM,50.0,26.6,40,30.18,10.0,WSW,16.1,26.5,N/A,,Mostly Cloudy,240,2013-10-25 18:58:00
2:58 PM,50.0,30.2,47,30.13,10.0,SSW,12.7,20.7,N/A,,Overcast,210,2013-10-25 19:58:00
3:58 PM,50.7,28.2,42,30.07,10.0,SSW,10.4,-,N/A,,Mostly Cloudy,210,2013-10-25 20:58:00
4:58 PM,50.4,27.5,41,30.02,10.0,SSW,12.7,19.6,N/A,,Mostly Cloudy,200,2013-10-25 21:58:00
5:58 PM,49.5,27.1,42,29.99,10.0,SSW,12.7,21.9,N/A,,Mostly Cloudy,210,2013-10-25 22:58:00
6:58 PM,48.9,27.0,43,29.94,10.0,SSW,16.1,26.5,N/A,,Scattered Clouds,210,2013-10-25 23:58:00
7:58 PM,49.6,27.9,43,29.91,10.0,SW,16.1,29.9,N/A,,Mostly Cloudy,220,2013-10-26 00:58:00
8:58 PM,49.5,29.7,47,29.89,10.0,SW,21.9,29.9,N/A,,Partly Cloudy,220,2013-10-26 01:58:00
9:58 PM,49.6,30.6,48,29.87,10.0,SW,21.9,29.9,N/A,,Scattered Clouds,230,2013-10-26 02:58:00
10:58 PM,50.4,30.9,47,29.85,10.0,SW,20.7,31.1,N/A,,Mostly Cloudy,230,2013-10-26 03:58:00
11:58 PM,50.9,30.9,46,29.81,10.0,SW,20.7,32.2,N/A,,Overcast,230,2013-10-26 04:58:00